Weather History for Stafford, VA

Change the Weather History Date:

Wednesday, July 10, 2013

  Actual Average (KNYG) Record (KNYG)
Temperature  
Mean Temperature 80 °F -  
Max Temperature 88 °F 83 °F 93 °F (1999)
Min Temperature 73 °F 64 °F 64 °F (1996)
Cooling Degree Days 16    
Growing Degree Days 30 (Base 50)    
Moisture  
Dew Point 75 °F    
Average Humidity 87    
Maximum Humidity 99    
Minimum Humidity 65    
Precipitation  
Precipitation 0.05 in - - ()
Sea Level Pressure  
Sea Level Pressure 30.01 in    
Wind  
Wind Speed 3 mph (SSW)    
Max Wind Speed 15 mph    
Max Gust Speed 29 mph    
Visibility 10 miles    
Events Rain , Thunderstorm    
Averages and records for this station are not official NWS values.
T = Trace of Precipitation, MM = Missing Value Source: NWS Daily Summary

Daily Weather History Graph

Daily Weather History Graph

Search for Another Location

Airport:

Trip Planner

Search our weather history database for the weather conditions in past years. The results will help you decide how hot, cold, wet, or windy it might be!

Date:

Astronomy

Jul. 10, 2013 Rise Set
Actual Time 5:54 AM EDT 8:35 PM EDT
Civil Twilight 5:23 AM EDT 9:06 PM EDT
Nautical Twilight 4:44 AM EDT 9:45 PM EDT
Astronomical Twilight 4:01 AM EDT 10:28 PM EDT
Moon 8:11 AM EDT (7/10) 9:46 PM EDT (7/10)
Length of Visible Light 15h 42m
Length of Day
14h 40m
Waxing Crescent, 5% of the Moon is Illuminated
Jul 10
Waxing Crescent
Jul 15
First Quarter
Jul 22
Full
Jul 29
Last Quarter
Aug 6
New

Hourly Weather History & Observations

Time (EDT) Temp. Heat Index Dew Point Humidity Pressure Visibility Wind Dir Wind Speed Gust Speed Precip Events Conditions
12:15 AM 78.8 °F - 75.4 °F 89% 30.07 in 10.0 mi Calm Calm - N/A   Scattered Clouds
12:35 AM 78.8 °F - 75.2 °F 89% 30.07 in 10.0 mi South 5.8 mph - N/A   Mostly Cloudy
12:55 AM 78.8 °F - 75.0 °F 88% 30.07 in 10.0 mi South 4.6 mph - N/A   Overcast
1:15 AM 78.8 °F - 74.5 °F 87% 30.06 in 10.0 mi SSW 3.5 mph - N/A   Overcast
1:35 AM 78.8 °F - 74.3 °F 86% 30.05 in 10.0 mi Calm Calm - N/A   Mostly Cloudy
1:55 AM 78.3 °F - 74.5 °F 88% 30.05 in 10.0 mi South 3.5 mph - N/A   Mostly Cloudy
2:15 AM 77.9 °F - 74.5 °F 89% 30.05 in 10.0 mi Calm Calm - N/A   Scattered Clouds
2:35 AM 77.7 °F - 74.8 °F 91% 30.04 in 10.0 mi Calm Calm - N/A   Clear
2:55 AM 77.4 °F - 75.0 °F 92% 30.03 in 10.0 mi SSW 4.6 mph - N/A   Clear
3:15 AM 77.4 °F - 75.2 °F 93% 30.03 in 10.0 mi SSW 3.5 mph - N/A   Scattered Clouds
3:55 AM 77.2 °F - 75.2 °F 94% 30.03 in 10.0 mi SW 3.5 mph - N/A   Scattered Clouds
4:15 AM 77.2 °F - 74.7 °F 92% 30.03 in 10.0 mi Calm Calm - N/A   Clear
4:35 AM 77.0 °F - 74.5 °F 92% 30.04 in 10.0 mi SSW 3.5 mph - N/A   Clear
4:55 AM 77.0 °F - 74.8 °F 93% 30.04 in 10.0 mi Calm Calm - N/A   Clear
5:15 AM 77.0 °F - 75.2 °F 94% 30.04 in 10.0 mi Calm Calm - N/A   Clear
5:35 AM 77.0 °F - 75.2 °F 94% 30.04 in 10.0 mi Calm Calm - N/A   Scattered Clouds
5:55 AM 77.0 °F - 75.2 °F 94% 30.04 in 10.0 mi Calm Calm - N/A   Mostly Cloudy
6:15 AM 76.1 °F - 74.8 °F 96% 30.04 in 10.0 mi South 3.5 mph - N/A   Scattered Clouds
6:35 AM 76.5 °F - 75.4 °F 96% 30.04 in 7.0 mi South 4.6 mph - N/A   Scattered Clouds
6:55 AM 77.0 °F - 75.7 °F 96% 30.04 in 7.0 mi SSW 4.6 mph - N/A   Scattered Clouds
7:15 AM 77.0 °F - 75.4 °F 95% 30.04 in 7.0 mi South 5.8 mph - N/A   Mostly Cloudy
7:35 AM 77.0 °F - 75.2 °F 94% 30.04 in 10.0 mi SSW 6.9 mph - N/A   Overcast
7:55 AM 78.1 °F - 75.7 °F 92% 30.03 in 10.0 mi South 5.8 mph - N/A   Overcast
8:15 AM 78.4 °F - 75.6 °F 91% 30.04 in 10.0 mi SW 8.1 mph - N/A   Overcast
8:35 AM 78.8 °F - 75.7 °F 90% 30.05 in 10.0 mi SSW 4.6 mph - N/A   Mostly Cloudy
8:55 AM 78.8 °F - 75.7 °F 90% 30.05 in 10.0 mi WSW 5.8 mph - N/A   Scattered Clouds
9:15 AM 78.8 °F - 75.7 °F 90% 30.06 in 10.0 mi West 4.6 mph - N/A   Mostly Cloudy
9:35 AM 78.8 °F - 75.9 °F 91% 30.05 in 10.0 mi Calm Calm - N/A   Overcast
9:55 AM 79.0 °F - 76.1 °F 91% 30.05 in 7.0 mi Calm Calm - N/A   Mostly Cloudy
10:15 AM 79.3 °F - 76.1 °F 90% 30.05 in 10.0 mi Calm Calm - N/A   Mostly Cloudy
10:35 AM 80.6 °F 86.9 °F 76.8 °F 88% 30.05 in 10.0 mi SSW 3.5 mph - N/A   Mostly Cloudy
10:55 AM 79.7 °F - 76.6 °F 90% 30.06 in 10.0 mi WSW 4.6 mph - N/A   Mostly Cloudy
11:15 AM 79.3 °F - 76.8 °F 92% 30.05 in 7.0 mi Calm Calm - N/A Rain Light Rain
11:35 AM 79.3 °F - 76.8 °F 92% 30.05 in 7.0 mi South 4.6 mph - N/A   Overcast
11:55 AM 79.0 °F - 76.8 °F 93% 30.05 in 7.0 mi Calm Calm - N/A   Overcast
12:15 PM 79.5 °F - 77.4 °F 93% 30.05 in 7.0 mi SSE 3.5 mph - N/A   Overcast
12:35 PM 81.1 °F 88.9 °F 77.9 °F 90% 30.04 in 7.0 mi SSW 5.8 mph - N/A   Overcast
12:55 PM 84.2 °F 94.5 °F 77.5 °F 80% 30.04 in 10.0 mi South 8.1 mph - N/A   Scattered Clouds
1:15 PM 85.3 °F 96.7 °F 77.5 °F 78% 30.03 in 10.0 mi SSW 5.8 mph - N/A   Clear
1:35 PM 86.0 °F 96.9 °F 76.8 °F 74% 30.02 in 10.0 mi SSW 5.8 mph - N/A   Clear
1:55 PM 86.0 °F 95.5 °F 75.7 °F 71% 30.01 in 10.0 mi SW 3.5 mph - N/A   Clear
2:15 PM 85.8 °F 95.5 °F 75.7 °F 72% 30.01 in 10.0 mi SSW 4.6 mph - N/A   Clear
2:35 PM 87.1 °F 97.3 °F 75.9 °F 69% 30.00 in 10.0 mi SW 5.8 mph - N/A   Clear
2:55 PM 88.3 °F 99.5 °F 75.9 °F 67% 29.99 in 10.0 mi SW 4.6 mph - N/A   Clear
3:15 PM 86.9 °F 97.8 °F 76.5 °F 71% 29.98 in 10.0 mi SSW 3.5 mph - N/A   Clear
3:35 PM 87.6 °F 97.6 °F 75.4 °F 67% 29.97 in 10.0 mi WSW 4.6 mph - N/A   Clear
3:55 PM 88.7 °F 100.4 °F 76.3 °F 67% 29.95 in 10.0 mi South 5.8 mph - N/A   Clear
4:15 PM 88.2 °F 98.5 °F 75.4 °F 66% 29.94 in 10.0 mi South 6.9 mph - N/A   Clear
4:35 PM 87.1 °F 96.3 °F 75.0 °F 67% 29.92 in 10.0 mi South 5.8 mph - N/A   Clear
4:55 PM 86.9 °F 95.0 °F 73.9 °F 65% 29.93 in 10.0 mi SSW 4.6 mph - N/A Thunderstorm Clear
5:15 PM 86.0 °F 95.1 °F 75.4 °F 70% 29.93 in 10.0 mi Calm Calm - N/A   Clear
5:35 PM 84.2 °F 92.6 °F 75.4 °F 75% 29.92 in 10.0 mi SW 3.5 mph - N/A   Clear
5:55 PM 84.0 °F 91.9 °F 74.8 °F 74% 29.93 in 10.0 mi SW 3.5 mph - N/A Thunderstorm Mostly Cloudy
6:15 PM 84.2 °F 91.6 °F 74.3 °F 72% 29.93 in 10.0 mi SW 15.0 mph 28.8 mph N/A Thunderstorm Overcast
6:35 PM 80.2 °F 84.3 °F 72.5 °F 77% 29.96 in 10.0 mi SSW 5.8 mph - N/A Rain , Thunderstorm Light Thunderstorms and Rain
6:55 PM 76.6 °F - 72.7 °F 87% 29.99 in 10.0 mi South 6.9 mph - 0.01 in Rain Light Rain
7:15 PM 74.7 °F - 72.3 °F 92% 29.99 in 10.0 mi South 5.8 mph - 0.02 in Rain Rain
7:35 PM 73.4 °F - 72.5 °F 97% 29.98 in 10.0 mi South 6.9 mph - 0.04 in Rain Light Rain
7:55 PM 73.6 °F - 72.7 °F 97% 29.98 in 10.0 mi SSW 4.6 mph - 0.04 in Thunderstorm Unknown
8:15 PM 73.4 °F - 72.7 °F 98% 29.97 in 10.0 mi South 5.8 mph - N/A   Clear
8:35 PM 73.4 °F - 72.7 °F 98% 29.97 in 10.0 mi SSW 4.6 mph - N/A   Clear
8:55 PM 73.8 °F - 72.9 °F 97% 29.97 in 10.0 mi Calm Calm - N/A Rain Rain
9:15 PM 73.4 °F - 72.7 °F 98% 29.97 in 10.0 mi Calm Calm - N/A Rain Light Rain
9:35 PM 73.4 °F - 72.7 °F 98% 29.97 in 10.0 mi Calm Calm - N/A   Scattered Clouds
9:55 PM 73.4 °F - 73.0 °F 99% 29.96 in 10.0 mi South 4.6 mph - N/A   Clear
10:15 PM 73.4 °F - 72.7 °F 98% 29.95 in 10.0 mi Calm Calm - N/A   Clear
10:35 PM 73.4 °F - 72.5 °F 97% 29.96 in 10.0 mi Calm Calm - N/A   Scattered Clouds
10:55 PM 73.8 °F - 72.7 °F 96% 29.95 in 10.0 mi Calm Calm - N/A   Scattered Clouds
11:15 PM 73.9 °F - 72.7 °F 96% 29.95 in 10.0 mi Calm Calm - N/A   Scattered Clouds
11:35 PM 73.8 °F - 72.7 °F 96% 29.96 in 10.0 mi South 5.8 mph - N/A   Mostly Cloudy
11:55 PM 73.8 °F - 72.0 °F 94% 29.95 in 10.0 mi SSW 4.6 mph - N/A   Overcast